Location: Unspecified
(0.0000°N, 0.0000°E)
Time: 09:36:07
(UTC+00:00)

NOSS 2-1 (E) - Visible Passes

Search period start: 21 April 2018 00:00
Search period end: 01 May 2018 00:00
Orbit: 490 x 1715 km, 63.3° (Epoch: 19 April)

Date Brightness Start Highest point End Pass type
(mag) Time Alt. Az. Time Alt. Az. Time Alt. Az.
21 Apr 7.8 04:09:20 10° NNE 04:15:17 20° ENE 04:21:51 10° ESE visible
22 Apr 5.9 05:11:10 10° NNW 05:19:58 75° ENE 05:30:21 10° SSE visible
23 Apr 6.6 04:25:59 10° N 04:34:13 46° ENE 04:43:51 10° SE visible
24 Apr 7.3 03:41:32 10° NNE 03:48:32 27° ENE 03:56:30 10° ESE visible
24 Apr 5.7 05:30:27 10° NW 05:39:14 56° WSW 05:49:22 10° S visible
25 Apr 7.9 02:58:39 10° NE 03:02:51 14° ENE 03:07:21 10° E visible
25 Apr 5.5 04:44:24 10° NNW 04:53:19 88° WSW 05:03:47 10° SSE visible
26 Apr 6.0 03:58:56 10° N 04:07:30 59° ENE 04:17:37 10° SE visible
27 Apr 6.8 03:14:05 10° N 03:21:48 35° ENE 03:30:44 10° SE visible
27 Apr 5.8 05:04:09 10° NW 05:12:41 44° WSW 05:22:21 10° S visible
28 Apr 7.4 02:30:12 10° NNE 02:36:08 20° ENE 02:42:43 10° ESE visible
28 Apr 5.4 04:17:47 10° NNW 04:26:41 71° WSW 04:37:05 10° SSE visible
29 Apr 5.6 03:32:02 10° NNW 03:40:49 75° ENE 03:51:13 10° SSE visible
29 Apr 6.6 05:25:51 10° WNW 05:32:15 20° WSW 05:39:07 10° SSW visible
30 Apr 6.2 02:46:51 10° N 02:55:04 46° ENE 03:04:42 10° SE visible
30 Apr 6.0 04:38:03 10° NW 04:46:08 34° WSW 04:55:09 10° S visible
